SCP
0 0 0 0 0 0 0 0 0 0 0 0 0 0 0 0 0 0 0 0 0 0 0 0 0 0 0 0 0 0 0 0 0 0 0 0 0 0 0 0 0 0 0 0 0 0 0 0 0
0 0 0 0 0 0 0 0 0 0 0 0 0 0 0 0 0 0 0 0 0 0 0 0 0 0 0 0 0 0 0 0 0 0 0 0 0 0 0 0 0 0 0 0 0 0 0 0 0
0 0 0 0 0 0 0 0 0 0 0 0 0 0 0 0 0 0 0 0 0 0 0 0 0 0 0 0 0 0 0 0 0 0 0 0 0 0 0 0 0 0 0 0 0 0 0 0 0
0 0 0 0 0 0 0 0 0 0 0 0 0 0 0 0 0 0 0 0 0 0 0 0 0 0 0 0 0 0 0 0 0 0 0 0 0 0 0 0 0 0 0 0 0 0 0 0 0
0 0 0 0 0 0 0 0 0 0 0 0 0 0 0 0 0 0 0 0 0 0 0 0 0 0 0 0 0 0 0 0 0 0 0 0 0 0 0 0 0 0 0 0 0 0 0 0 0
0 0 0 0 0 0 0 0 0 0 0 0 0 0 0 0 0 0 0 0 0 0 0 0 0 0 0 0 0 0 0 0 0 0 0 0 0 0 0 0 0 0 0 0 0 0 0 0 0
0 0 0 0 0 0 0 0 0 0 0 0 0 0 0 0 0 0 0 0 0 0 0 0 0 0 0 0 0 0 0 0 0 0 0 0 0 0 0 0 0 0 0 0 0 0 0 0 0
0 0 0 0 0 0 0 0 0 0 0 0 0 0 0 0 0 0 0 0 0 0 0 0 0 0 0 0 0 0 0 0 0 0 0 0 0 0 0 0 0 0 0 0 0 0 0 0 0
0 0 0 0 0 0 0 0 0 0 0 0 0 0 0 0 0 0 0 0 0 0 0 0 0 0 0 0 0 0 0 0 0 0 0 0 0 0 0 0 0 0 0 0 0 0 0 0 0
0 0 0 0 0 0 0 0 0 0 0 0 0 0 0 0 0 0 0 0 0 0 0 0 0 0 0 0 0 0 0 0 0 0 0 0 0 0 0 0 0 0 0 0 0 0 0 0 0
0 0 0 0 0 0 0 0 0 0 0 0 0 0 0 0 0 0 0 0 0 0 0 0 0 0 0 0 0 0 0 0 0 0 0 0 0 0 0 0 0 0 0 0 0 0 0 0 0
0 0 0 0 0 0 0 0 0 0 0 0 0 0 0 0 0 0 0 0 0 0 0 0 0 0 0 0 0 0 0 0 0 0 0 0 0 0 0 0 0 0 0 0 0 0 0 0 0
0 0 0 0 0 0 0 0 0 0 0 0 0 0 0 0 0 0 0 0 0 0 0 0 0 0 0 0 0 0 0 0 0 0 0 0 0 0 0 0 0 0 0 0 0 0 0 0 0
0 0 0 0 0 0 0 0 0 0 0 0 0 0 0 0 0 0 0 0 0 0 0 0 0 0 0 0 0 0 0 0 0 0 0 0 0 0 0 0 0 0 0 0 0 0 0 0 0
0 0 0 0 0 0 0 0 0 0 0 0 0 0 0 0 0 0 0 0 0 0 0 0 0 0 0 0 0 0 0 0 0 0 0 0 0 0 0 0 0 0 0 0 0 0 0 0 0
0 0 0 0 0 0 0 0 0 0 0 0 0 0 0 0 0 0 0 0 0 0 0 0 0 0 0 0 0 0 0 0 0 0 0 0 0 0 0 0 0 0 0 0 0 0 0 0 0
0 0 0 0 0 0 0 0 0 0 0 0 0 0 0 0 0 0 0 0 0 0 0 0 0 0 0 0 0 0 0 0 0 0 0 0 0 0 0 0 0 0 0 0 0 0 0 0 0
0 0 0 0 0 0 0 0 0 0 0 0 0 0 0 0 0 0 0 0 0 0 0 0 0 0 0 0 0 0 0 0 0 0 0 0 0 0 0 0 0 0 0 0 0 0 0 0 0
0 0 0 0 0 0 0 0 0 0 0 0 0 0 0 0 0 0 0 0 0 0 0 0 0 0 0 0 0 0 0 0 0 0 0 0 0 0 0 0 0 0 0 0 0 0 0 0 0
0 0 0 0 0 0 0 0 0 0 0 0 0 0 0 0 0 0 0 0 0 0 0 0 0 0 0 0 0 0 0 0 0 0 0 0 0 0 0 0 0 0 0 0 0 0 0 0 0
0 0 0 0 0 0 0 0 0 0 0 0 0 0 0 0 0 0 0 0 0 0 0 0 0 0 0 0 0 0 0 0 0 0 0 0 0 0 0 0 0 0 0 0 0 0 0 0 0
0 0 0 0 0 0 0 0 0 0 0 0 0 0 0 0 0 0 0 0 0 0 0 0 0 0 0 0 0 0 0 0 0 0 0 0 0 0 0 0 0 0 0 0 0 0 0 0 0
0 0 0 0 0 0 0 0 0 0 0 0 0 0 0 0 0 0 0 0 0 0 0 0 0 0 0 0 0 0 0 0 0 0 0 0 0 0 0 0 0 0 0 0 0 0 0 0 0
0 0 0 0 0 0 0 0 0 0 0 0 0 0 0 0 0 0 0 0 0 0 0 0 0 0 0 0 0 0 0 0 0 0 0 0 0 0 0 0 0 0 0 0 0 0 0 0 0
0 0 0 0 0 0 0 0 0 0 0 0 0 0 0 0 0 0 0 0 0 0 0 0 0 0 0 0 0 0 0 0 0 0 0 0 0 0 0 0 0 0 0 0 0 0 0 0 0
0 0 0 0 0 0 0 0 0 0 0 0 0 0 0 0 0 0 0 0 0 0 0 0 0 0 0 0 0 0 0 0 0 0 0 0 0 0 0 0 0 0 0 0 0 0 0 0 0
0 0 0 0 0 0 0 0 0 0 0 0 0 0 0 0 0 0 0 0 0 0 0 0 0 0 0 0 0 0 0 0 0 0 0 0 0 0 0 0 0 0 0 0 0 0 0 0 0
0 0 0 0 0 0 0 0 0 0 0 0 0 0 0 0 0 0 0 0 0 0 0 0 0 0 0 0 0 0 0 0 0 0 0 0 0 0 0 0 0 0 0 0 0 0 0 0 0
0 0 0 0 0 0 0 0 0 0 0 0 0 0 0 0 0 0 0 0 0 0 0 0 0 0 0 0 0 0 0 0 0 0 0 0 0 0 0 0 0 0 0 0 0 0 0 0 0
0 0 0 0 0 0 0 0 0 0 0 0 0 0 0 0 0 0 0 0 0 0 0 0 0 0 0 0 0 0 0 0 0 0 0 0 0 0 0 0 0 0 0 0 0 0 0 0 0
Wind_Speed
7 5 2 2 6 6 3 3 1 3 4 3 5 6 6 4 2 2 0 3 3 2 1 2 5 6 7 7 8 8 9 10 11 11 11 12 12 13 13 14 14 15 15 15 16 15 16 16 16
5 3 1 4 6 4 3 2 3 3 4 4 5 5 6 4 3 4 2 2 4 2 1 2 5 5 6 7 7 8 9 10 10 11 11 12 12 13 14 14 14 14 15 15 15 15 15 15 15
4 1 4 5 4 3 2 1 4 5 4 3 4 5 4 3 3 3 2 5 4 2 1 1 5 5 6 6 7 8 9 10 10 11 11 11 12 13 13 13 14 14 14 14 14 14 14 14 13
2 3 5 6 4 1 3 3 5 5 4 5 4 5 4 3 3 4 6 6 4 2 1 1 5 5 6 6 7 8 9 9 10 11 11 11 12 12 13 13 13 13 13 13 13 13 12 12 12
3 4 6 4 3 2 2 3 3 4 3 4 4 5 3 4 6 8 6 5 4 2 1 1 5 5 6 6 7 8 8 9 10 11 11 11 11 11 11 12 12 12 12 12 12 12 11 11 11
4 5 5 2 2 3 3 2 3 5 5 4 4 4 2 2 5 6 5 4 3 2 1 1 4 5 5 6 7 7 8 9 9 10 10 10 10 10 11 12 12 12 11 11 10 10 10 9 9
4 5 4 3 2 2 2 2 3 4 4 3 4 4 2 1 3 5 5 4 3 2 2 2 2 2 4 6 6 7 8 8 9 9 9 10 10 10 10 10 10 11 10 10 9 9 8 8 8
4 5 3 2 3 2 3 3 3 5 4 4 4 5 4 4 5 6 5 4 3 2 2 2 2 3 2 2 5 6 7 7 8 8 8 8 8 8 9 8 8 9 9 8 8 7 7 7 7
4 5 2 4 5 3 4 4 2 3 5 2 2 4 5 9 9 7 4 2 1 1 1 1 1 2 2 1 3 4 5 6 6 5 7 6 4 4 4 6 7 8 8 8 7 6 6 6 6
4 3 5 4 6 6 5 5 5 4 4 2 5 6 10 10 9 7 5 4 3 2 1 0 0 1 0 1 2 2 2 3 3 3 3 3 3 2 3 4 6 7 7 6 6 6 5 4 3
4 4 3 2 5 7 6 4 3 7 3 4 8 10 11 9 7 6 5 4 4 3 2 2 1 1 1 1 1 1 1 2 2 2 3 3 2 2 2 2 2 3 4 3 4 4 2 2 2
3 1 3 4 5 6 6 5 4 4 4 6 10 12 10 9 7 6 6 5 3 2 3 3 2 2 1 1 1 1 1 1 1 1 2 2 1 1 1 1 2 2 1 2 2 1 2 2 2
3 2 3 6 6 6 6 4 4 1 5 9 10 10 9 8 6 4 4 4 3 3 3 2 2 2 2 1 1 1 1 0 0 1 1 2 1 1 1 1 1 1 1 1 1 1 1 1 1
3 5 6 5 5 3 6 3 3 2 7 10 10 8 7 7 6 4 4 4 4 4 3 2 2 3 2 2 1 1 1 1 0 0 1 2 2 2 1 1 1 1 1 1 1 1 1 1 1
5 7 6 2 3 3 6 2 1 5 9 9 8 7 6 5 5 6 6 5 5 4 3 3 3 2 2 2 1 1 1 1 1 0 1 1 2 2 2 1 1 1 1 1 1 1 1 1 1
5 5 2 2 2 3 6 2 3 7 9 8 7 7 6 4 5 5 5 4 4 4 3 3 3 3 3 2 1 1 1 1 0 0 1 1 2 2 2 2 1 1 1 1 1 1 1 1 1
4 2 2 2 3 4 4 3 4 7 9 8 7 7 6 5 4 4 5 5 5 4 4 3 3 3 3 2 1 1 1 1 0 0 1 1 2 2 2 1 1 1 2 1 1 2 2 2 1
4 3 2 4 3 5 3 3 3 8 8 8 7 7 6 6 6 5 5 5 4 4 4 4 3 3 3 2 2 1 1 1 1 0 0 1 1 2 2 2 2 2 2 1 1 2 2 2 2
5 5 3 2 3 5 3 3 4 7 7 7 7 7 7 7 5 4 4 5 4 4 4 3 3 3 3 2 2 1 0 0 0 0 0 1 2 2 2 2 2 2 2 2 2 2 2 2 2
4 4 2 0 2 4 2 2 2 6 9 9 10 9 9 7 5 5 5 5 5 5 4 4 4 3 3 2 2 2 1 1 0 0 1 0 1 2 2 2 2 2 2 2 2 3 2 1 1
2 4 4 4 3 3 3 3 1 2 3 4 6 7 8 9 9 7 6 6 5 5 6 5 4 4 3 3 2 2 2 1 1 1 1 0 1 2 2 2 2 2 2 2 2 3 3 2 1
2 3 5 5 5 1 2 2 5 3 3 5 7 8 9 9 8 7 7 7 7 6 5 5 4 4 3 3 3 3 2 2 1 1 0 0 0 1 2 2 2 2 2 2 2 2 2 3 2
3 3 5 5 5 3 2 1 7 1 4 8 8 9 9 9 10 9 9 8 7 6 5 5 4 3 3 4 4 4 3 2 1 1 0 0 0 1 1 2 2 2 2 2 2 2 2 2 2
6 7 7 6 5 1 2 3 6 4 6 6 8 8 8 9 9 8 7 6 6 5 5 5 4 3 3 4 4 4 4 4 3 2 1 1 0 0 0 1 1 2 2 2 2 2 3 2 2
5 7 5 5 4 4 1 2 8 7 6 6 8 9 8 8 9 9 9 8 7 7 7 6 5 4 4 4 4 5 5 4 4 3 2 1 1 0 1 1 1 1 1 2 2 2 2 2 3
5 9 8 5 5 4 1 4 8 5 4 3 4 5 6 7 8 9 10 10 9 9 8 7 6 5 5 5 4 4 4 3 2 3 2 2 1 1 1 1 1 1 1 2 2 2 2 2 2
6 4 6 8 3 0 4 6 8 3 2 0 2 3 5 7 8 9 8 9 9 9 8 8 8 6 5 5 5 4 4 3 3 3 2 1 1 1 2 2 2 1 1 1 2 2 2 2 2
5 9 6 7 6 2 4 4 5 5 5 3 3 4 5 5 7 7 7 8 8 8 7 6 7 7 6 5 5 4 4 4 4 3 3 2 2 1 2 2 2 1 1 1 2 1 1 2 1
4 4 6 5 5 7 3 7 6 7 7 6 6 5 5 6 6 6 6 7 7 6 6 6 6 5 5 5 5 4 4 4 4 3 3 2 2 2 2 2 2 2 1 2 2 1 1 1 0
4 7 8 7 4 4 4 8 4 4 5 5 4 3 3 4 4 4 4 4 5 6 6 6 6 6 6 5 5 5 4 4 4 3 3 3 3 3 3 2 2 2 2 2 2 2 1 1 1
Wind_Direction
155 149 143 79 54 50 38 5 47 56 55 49 69 77 84 66 79 133 310 117 109 102 85 120 106 94 88 86 85 84 89 95 97 99 100 99 100 103 108 109 111 109 107 108 109 113 116 116 118
145 155 91 58 73 60 9 2 66 74 129 125 76 69 70 60 59 103 105 122 105 102 77 116 114 99 92 90 90 90 94 100 101 100 101 100 102 104 112 113 112 109 107 109 114 113 114 115 117
158 149 76 66 79 128 138 116 112 108 109 80 70 58 68 86 113 136 154 128 103 95 59 131 116 104 97 97 96 96 97 101 104 105 106 106 106 105 109 113 114 113 113 113 114 113 114 116 117
130 50 53 66 66 143 153 157 132 118 66 53 78 63 57 74 135 135 128 123 113 103 59 137 119 108 102 100 103 104 104 106 107 109 108 109 109 106 109 113 113 114 116 118 117 117 119 120 120
72 73 58 50 35 33 109 135 110 96 73 62 76 78 45 26 96 114 121 122 126 120 78 114 117 108 104 106 108 107 107 109 110 110 111 111 113 113 114 115 112 112 114 115 117 119 121 121 124
63 68 77 69 47 50 88 102 91 85 92 89 83 85 49 74 110 127 126 121 126 116 82 74 120 114 109 112 111 109 110 112 110 109 110 109 108 110 114 117 116 115 115 116 116 116 120 119 123
98 89 115 129 95 88 142 106 106 112 108 113 112 93 81 116 131 127 113 104 99 91 76 42 49 86 113 115 116 114 112 113 114 110 108 109 109 110 113 117 119 119 121 121 120 120 120 121 120
122 98 94 126 134 158 139 106 106 119 109 118 112 129 170 178 132 108 93 90 92 83 68 52 41 43 51 81 118 118 114 112 113 113 112 109 108 111 113 117 120 122 123 125 124 120 120 119 119
99 78 147 186 166 161 139 116 115 81 108 106 96 138 147 134 126 114 102 89 98 132 48 51 57 51 54 65 112 112 115 110 104 106 109 96 74 78 98 120 125 122 122 123 121 117 114 111 114
94 121 208 194 165 146 138 127 136 104 104 83 77 88 116 130 139 143 152 161 180 197 204 193 149 129 73 92 75 58 69 73 74 74 82 81 78 76 94 111 121 122 120 116 113 107 100 88 83
130 166 186 143 140 129 126 121 116 128 160 182 153 141 140 143 149 159 171 177 193 200 205 205 198 177 144 85 90 67 63 66 68 75 85 87 76 65 58 56 74 79 87 78 81 75 73 83 88
123 120 124 125 126 122 133 127 116 159 197 160 149 145 146 154 165 175 178 182 181 183 211 211 191 183 183 136 95 88 85 82 82 85 94 96 87 78 75 73 70 68 75 80 77 77 73 74 86
97 84 81 104 103 110 107 109 128 137 119 124 132 137 150 160 167 173 173 170 170 190 211 205 186 190 182 149 135 116 115 131 143 115 123 132 134 137 114 99 93 92 98 102 98 86 76 62 67
116 91 84 91 98 104 110 95 98 140 127 130 139 148 159 165 165 161 163 171 181 193 202 187 183 189 168 155 154 160 164 168 117 126 179 165 159 157 144 137 130 132 134 138 129 126 88 60 73
86 80 59 71 102 122 109 76 184 156 138 142 153 158 162 168 165 174 181 182 183 184 184 180 181 163 154 161 172 157 155 137 128 149 181 165 162 161 154 149 162 180 144 129 116 108 104 110 104
64 75 96 249 134 138 124 198 211 151 148 157 165 167 169 181 187 186 178 176 173 164 164 180 174 150 155 156 148 127 124 128 123 102 129 154 160 157 151 156 181 165 132 130 130 120 107 99 98
43 130 195 227 182 151 148 206 195 160 158 167 175 177 178 188 200 197 182 176 171 166 160 160 153 148 154 146 115 98 95 97 72 76 116 147 152 154 151 167 174 146 135 141 152 122 130 129 117
204 192 201 206 196 146 167 217 182 172 171 179 183 183 184 196 209 199 185 173 167 162 156 155 149 145 137 118 93 68 59 51 51 54 162 154 152 151 149 157 158 144 139 132 129 121 112 133 133
163 161 191 234 172 144 182 204 192 180 180 187 192 194 196 206 205 188 182 167 157 157 156 163 161 162 144 126 128 119 120 4 18 331 285 162 165 159 152 156 153 147 156 162 146 130 117 107 114
141 141 186 352 118 139 162 235 200 186 194 196 196 199 201 201 191 186 181 173 169 172 174 177 181 175 171 156 145 145 137 133 137 355 28 123 154 159 161 158 159 156 158 153 146 141 130 139 136
148 172 190 166 100 66 93 343 271 231 196 201 202 200 200 199 197 191 185 185 177 183 187 190 191 186 180 161 125 103 83 58 49 24 355 343 162 168 162 162 162 162 167 176 174 169 162 169 176
229 211 168 138 115 39 94 278 288 238 216 215 213 204 205 204 194 191 188 187 191 196 187 182 183 184 176 161 157 160 162 177 202 191 241 315 174 168 165 167 168 173 174 182 196 179 173 162 173
179 95 100 106 111 72 42 131 289 297 238 233 221 213 209 202 193 193 192 192 194 190 181 178 172 183 178 168 171 166 171 180 165 140 184 307 324 190 179 174 173 178 185 190 193 177 171 169 171
117 74 58 52 68 35 244 155 278 240 229 231 217 213 206 197 192 191 186 179 184 183 179 172 172 191 182 174 175 175 179 178 169 180 201 238 298 309 175 162 171 180 183 191 191 178 176 181 179
95 90 47 15 15 253 251 175 250 254 238 218 209 207 199 188 185 182 180 183 185 184 185 178 177 195 190 183 187 186 186 181 186 195 200 198 194 217 221 172 170 180 190 186 175 170 181 185 186
161 136 153 180 209 263 312 232 253 268 270 239 201 188 179 179 184 188 189 189 190 193 190 184 185 196 191 189 193 184 180 181 192 196 192 193 200 208 195 171 165 168 171 176 169 168 185 180 193
136 151 151 127 137 141 277 281 298 291 310 285 167 160 185 189 187 191 190 188 190 192 191 188 187 194 192 192 185 176 173 179 188 188 179 178 190 184 167 153 143 149 162 170 158 162 179 169 186
132 140 107 118 142 213 280 271 251 256 246 230 201 195 198 186 186 191 192 190 190 191 189 185 187 195 193 189 192 184 174 182 186 177 179 181 182 165 147 141 140 136 124 134 142 156 169 157 185
106 100 108 116 149 156 215 263 230 220 218 207 212 202 190 185 185 190 193 187 180 175 176 182 188 187 184 186 185 178 174 173 170 174 185 182 176 168 163 166 160 150 142 137 136 145 141 145 144
154 159 147 149 190 169 170 259 274 219 216 202 210 197 182 172 170 173 172 165 171 178 181 185 191 190 188 181 179 181 174 167 171 179 185 177 173 173 171 168 164 171 161 153 155 165 158 163 188